Wind_Speed
19 19 19 19 20 20 20 20 20 20 19 19 19 19 20 20 21 21 21 20 20 19 18 18 18 18 18 18 18 18 16 16 16 16 17 19 19 20 21 21 21 21 21 21 21 21 21 21 22 22 22 22 23 23 23 23 23 23 23 24 23 23 23 23 22 22 21 21 21
18 18 19 19 20 20 20 20 20 20 20 20 19 19 20 20 21 21 20 20 19 19 18 18 18 19 19 20 20 19 18 17 17 17 18 19 20 20 21 21 22 22 22 22 22 22 22 22 22 22 22 23 23 23 24 23 23 23 24 24 24 24 24 23 23 22 21 22 22
17 17 18 19 20 20 21 21 21 20 20 19 19 19 19 20 20 20 20 20 19 19 19 19 19 19 20 20 20 20 20 19 18 18 18 19 20 20 21 22 22 22 22 22 23 23 23 23 23 23 23 23 23 24 24 24 23 24 24 24 24 24 24 24 23 22 22 22 22
17 17 18 18 19 19 20 20 20 20 20 19 19 19 19 20 20 20 20 20 19 19 19 19 19 19 20 20 21 21 20 20 19 19 19 19 20 20 21 22 22 22 22 23 23 23 23 23 23 23 23 23 24 24 24 24 24 24 24 25 25 25 25 24 23 23 23 23 23
17 17 17 17 17 18 18 19 20 20 19 19 19 19 19 20 20 20 20 20 20 19 19 19 19 19 20 20 20 21 21 20 20 19 19 19 20 20 21 21 22 22 22 23 23 24 24 24 24 24 24 24 24 24 24 24 25 25 25 25 25 25 25 24 24 23 23 23 24
18 18 17 17 16 17 17 18 19 19 19 19 20 20 20 20 20 20 20 20 20 19 19 19 19 19 20 20 20 20 20 20 20 20 19 19 19 20 21 21 22 22 23 23 23 24 24 24 24 24 24 24 24 24 25 25 25 26 26 26 26 26 25 25 24 24 24 24 24
19 19 18 18 17 17 17 17 18 18 19 20 20 20 20 20 20 20 20 20 20 19 19 19 19 19 19 20 20 20 20 20 20 20 20 20 20 20 21 21 22 22 23 23 23 24 24 24 24 24 24 24 24 25 25 25 26 26 26 27 26 26 26 25 25 24 24 25 25
21 20 20 19 18 18 17 17 17 18 19 20 20 20 20 20 20 20 20 20 20 20 19 19 19 19 19 19 20 20 20 20 20 20 20 20 20 20 21 21 22 22 23 23 24 24 24 24 24 24 24 24 25 25 25 26 26 27 27 27 27 27 26 26 25 25 25 25 25
23 22 21 20 20 19 18 17 18 18 19 19 20 20 20 20 20 20 21 21 21 20 20 20 19 19 19 19 19 19 20 20 20 20 20 20 20 21 21 22 22 23 23 24 24 24 24 24 24 24 24 24 24 25 25 26 27 27 28 28 28 27 27 26 26 26 26 26 26
26 25 23 22 21 20 19 19 19 19 19 20 20 20 20 21 21 21 21 21 21 21 21 20 19 19 19 19 19 19 19 20 20 20 20 21 21 21 22 22 23 23 24 24 24 24 24 24 24 24 24 24 24 25 26 26 27 28 28 28 28 28 27 27 26 26 26 26 27
28 27 26 24 23 22 21 20 20 20 20 20 20 21 21 21 22 22 22 22 22 22 21 20 20 19 19 19 19 19 19 20 20 20 21 21 21 22 22 23 23 24 24 24 25 25 25 25 25 25 25 24 24 25 26 27 27 28 29 29 29 28 28 27 27 27 27 27 28
30 29 28 26 25 24 23 22 22 22 22 22 21 21 22 22 22 22 22 23 23 22 21 21 21 20 20 20 19 19 20 20 20 21 21 22 22 22 23 23 24 25 25 25 25 25 26 26 25 25 25 24 25 25 26 27 28 29 29 29 29 29 28 28 27 27 28 28 29
32 31 30 29 27 26 25 24 24 24 24 23 22 22 22 22 23 23 23 23 23 23 22 22 22 21 21 21 20 20 20 20 21 21 22 22 22 23 24 24 25 25 26 26 26 26 26 26 26 25 24 24 25 25 26 27 28 29 29 30 30 29 28 28 28 28 28 29 30
34 33 32 31 30 28 27 26 26 26 26 25 24 23 22 23 23 24 24 24 24 23 23 23 23 23 22 22 21 21 21 21 22 22 22 23 23 24 24 25 25 26 26 26 27 27 27 27 26 25 25 24 24 25 26 27 29 29 30 30 30 29 29 28 28 28 29 30 30
33 33 33 32 32 30 29 28 28 28 27 26 25 23 23 23 24 24 25 25 24 24 24 24 24 24 23 23 23 22 22 22 23 23 23 24 24 25 25 26 26 26 27 27 27 28 28 27 27 26 25 24 24 25 27 28 29 30 30 30 30 29 29 29 29 29 30 30 31
31 32 32 33 32 32 31 30 29 29 28 27 25 24 24 24 24 25 25 25 25 25 26 26 25 25 25 24 24 24 24 24 24 24 24 25 25 25 25 26 26 27 27 27 28 28 28 28 27 26 25 24 25 26 27 29 30 30 30 30 30 30 29 29 29 30 30 31 31
29 30 31 32 32 32 31 31 30 30 29 28 26 25 24 24 24 25 26 26 26 26 27 27 26 26 26 25 25 25 25 25 25 25 25 25 25 25 26 26 26 27 27 28 28 28 28 27 27 26 25 25 25 27 28 29 30 31 31 31 30 30 30 29 30 30 31 31 32
29 29 30 31 31 31 31 31 31 31 30 29 27 26 25 24 25 25 26 26 27 27 27 27 27 27 27 27 27 27 27 27 27 26 26 26 25 25 26 26 26 26 27 28 28 28 28 27 26 25 25 25 26 27 29 30 31 31 31 31 30 30 30 30 30 30 31 32 32
29 30 30 30 30 31 31 31 31 31 30 29 28 26 25 25 25 26 26 27 27 27 27 27 28 28 28 28 28 28 28 28 27 27 26 26 26 26 26 26 26 27 27 28 28 28 28 27 26 25 25 26 27 28 29 30 31 31 31 31 31 30 30 30 30 31 31 32 32
30 30 30 30 30 30 31 31 31 31 31 29 28 26 25 25 25 26 26 27 27 27 28 28 28 29 29 29 29 29 28 28 28 27 27 26 26 26 26 26 27 27 27 28 28 28 27 26 25 25 25 26 27 29 30 31 31 31 31 31 31 30 30 30 31 31 32 32 32
31 30 30 30 30 30 31 31 31 31 31 29 27 26 25 25 26 26 26 27 27 28 28 29 29 29 29 29 29 29 28 28 28 28 27 27 27 27 27 27 27 27 28 28 28 28 27 25 25 25 25 27 28 30 31 31 31 31 31 31 31 31 31 31 31 32 32 32 32
30 30 30 30 30 30 31 31 31 31 30 28 27 26 25 25 26 26 26 27 28 28 28 29 29 29 29 29 29 28 28 28 28 28 28 28 27 27 27 27 27 28 28 28 28 27 26 25 24 25 26 27 29 30 31 31 31 31 31 31 31 31 31 32 32 32 32 32 32
30 30 30 30 30 30 30 31 30 30 28 27 26 25 25 25 25 26 26 27 27 28 28 28 28 28 28 28 28 28 28 28 28 28 28 28 27 27 27 27 28 28 28 28 27 26 24 24 24 25 27 28 29 30 31 31 32 32 32 32 32 32 32 32 32 32 32 32 32
29 29 29 29 29 29 29 29 29 28 27 26 25 24 24 24 25 25 26 26 27 27 27 27 27 27 27 27 27 28 28 28 28 28 28 27 27 27 27 27 28 28 27 26 25 24 23 23 24 25 27 28 30 31 31 32 32 32 32 32 32 32 32 32 32 32 32 32 32
28 28 28 28 28 28 28 28 27 26 26 25 24 24 24 24 24 25 25 26 26 26 26 26 26 26 26 27 27 27 27 27 27 27 27 27 27 27 27 27 27 26 26 25 24 23 23 24 25 26 28 29 30 31 32 32 33 33 33 33 33 33 33 33 33 32 32 32 32
26 26 26 26 26 26 26 26 26 25 25 24 24 24 24 24 24 24 24 25 25 25 25 25 25 26 26 26 26 26 26 26 26 26 26 26 26 26 26 26 26 25 24 23 23 23 24 25 26 28 29 30 31 32 32 33 33 33 33 33 33 33 33 33 32 32 32 32 32
25 25 25 24 25 25 25 25 24 24 24 24 24 24 24 24 24 24 24 24 24 24 24 25 25 25 25 25 25 25 25 25 25 25 25 25 25 26 25 25 24 23 22 22 22 23 24 26 27 29 30 31 32 32 33 33 33 33 33 33 33 33 33 33 32 32 32 32 32
24 23 23 23 24 24 24 24 24 24 24 23 23 23 23 24 24 24 24 24 24 24 24 24 24 24 24 24 24 23 23 23 23 23 24 24 24 25 25 24 23 22 21 21 22 24 25 27 29 30 31 32 33 33 33 33 34 34 34 34 33 33 33 33 33 33 33 33 33
23 23 22 23 23 23 23 23 23 23 23 23 23 23 23 23 23 23 23 23 23 23 23 23 23 23 23 22 22 22 22 22 22 22 23 23 24 24 24 23 22 21 21 22 23 25 27 28 30 31 32 33 33 34 34 34 34 34 34 34 33 33 32 32 33 33 33 33 33
22 22 22 22 22 22 22 22 22 22 22 22 22 22 23 23 22 22 22 22 22 22 22 22 22 22 22 21 21 21 21 21 21 22 22 22 23 23 23 22 21 21 22 23 25 26 28 29 30 31 32 33 33 34 34 34 34 34 34 33 33 32 32 32 33 33 33 32 32
21 21 21 20 20 20 20 20 21 21 21 21 21 21 21 21 21 21 21 20 20 21 21 21 21 21 21 21 21 21 21 21 21 21 21 22 22 22 22 21 21 22 23 24 26 28 29 30 31 31 32 33 33 34 34 34 34 34 33 33 32 32 32 32 32 32 32 32 32
20 20 19 19 19 19 19 19 19 19 20 20 19 19 19 19 19 19 19 19 19 19 20 20 20 20 20 20 20 20 20 20 20 20 21 21 21 21 21 21 22 23 24 25 27 28 29 30 31 32 32 32 33 33 34 34 33 33 33 32 32 32 32 32 32 32 32 32 33
19 19 18 18 18 18 18 18 18 18 18 18 17 17 17 17 17 17 17 18 18 18 18 19 19 19 19 19 19 19 19 19 19 20 20 21 21 21 22 22 22 24 25 26 27 28 30 30 31 31 32 32 32 33 33 33 33 33 32 32 32 32 32 32 31 31 32 32 33
18 18 18 17 17 17 17 17 17 16 16 15 15 15 15 15 15 16 16 17 18 18 19 19 19 19 19 20 20 19 20 20 20 20 21 21 21 22 22 22 23 24 25 26 28 29 30 30 31 31 31 31 32 32 33 33 33 32 32 32 32 32 32 31 31 31 32 33 34
18 17 17 17 16 16 16 15 14 14 13 13 13 14 14 15 16 16 17 18 19 19 19 20 20 20 20 21 21 21 21 21 21 21 21 22 22 22 22 23 24 25 26 27 28 29 29 30 30 30 30 31 31 32 32 32 32 32 32 32 32 32 31 31 31 32 33 34 35
17 16 16 15 15 14 13 13 12 12 12 13 14 14 15 16 16 17 18 19 19 19 19 19 20 20 21 21 22 22 22 21 21 21 22 22 22 22 22 23 24 25 26 27 28 28 29 29 29 29 30 30 31 31 32 32 32 32 33 33 32 32 31 31 31 32 34 35 36
15 15 14 13 13 12 12 12 12 12 12 13 14 15 15 16 16 17 17 18 18 18 19 19 20 21 21 22 22 22 22 22 21 21 22 22 22 22 23 23 24 25 26 27 27 28 28 28 28 29 29 30 31 31 31 32 32 32 33 33 32 32 31 32 33 34 35 36 38
14 14 13 13 12 12 12 12 12 12 12 13 14 14 15 15 15 16 16 17 18 19 20 21 21 22 22 23 23 23 23 23 22 22 22 22 22 22 23 23 24 25 26 26 27 27 27 28 28 28 29 30 30 31 31 32 32 32 32 32 32 32 32 33 34 35 37 38 38
14 13 13 12 12 11 11 12 12 12 12 13 14 14 15 15 16 16 17 18 19 20 21 22 22 23 23 24 24 24 24 23 22 22 21 21 22 22 22 23 24 25 25 26 26 26 27 27 27 28 28 29 30 30 31 31 32 32 32 32 32 32 33 34 35 37 38 38 38
13 13 12 11 11 11 11 11 12 12 13 14 14 15 16 16 17 18 19 20 21 22 23 23 23 23 24 24 24 23 23 23 22 21 21 21 21 21 21 22 23 24 24 25 25 26 26 26 27 27 28 29 29 30 30 31 31 31 31 32 32 33 34 36 37 38 39 39 38
12 12 11 11 10 11 11 11 12 13 14 14 15 16 17 18 19 20 21 22 23 23 23 23 23 23 24 23 23 22 21 21 21 20 20 20 20 20 21 21 22 22 23 24 24 25 25 26 26 27 27 28 29 29 29 30 30 31 31 32 33 34 36 37 38 39 39 38 37
Wind_Direction
248 250 252 253 253 253 253 252 252 252 252 254 255 257 258 258 259 259 258 257 256 255 254 253 253 254 255 257 259 260 259 257 254 251 250 249 248 247 246 245 243 242 241 240 239 238 239 240 242 245 248 250 253 256 259 262 265 268 271 274 277 280 282 283 283 284 287 289 292
244 248 251 253 254 254 254 253 253 253 254 256 257 259 259 259 258 258 257 256 254 253 252 252 253 254 256 258 259 261 261 259 257 254 252 251 250 249 248 246 245 244 242 240 239 238 238 239 241 244 246 249 252 254 258 261 264 267 269 272 276 279 280 281 281 283 285 288 290
240 244 247 250 253 254 254 255 255 255 256 258 260 260 259 258 257 256 254 253 251 250 249 250 253 255 258 259 260 261 262 261 259 256 254 252 251 250 249 248 247 245 243 241 239 238 238 238 240 243 245 248 251 254 257 260 263 265 268 271 275 277 278 279 280 281 283 286 288
237 240 243 247 251 254 256 257 258 259 259 260 260 260 258 257 255 253 251 249 248 247 249 251 254 257 259 260 261 261 261 260 259 257 255 254 252 251 250 249 248 246 244 242 240 239 238 238 240 242 245 247 250 254 257 259 262 264 267 270 273 275 277 278 279 280 282 284 287
236 239 242 247 251 254 257 258 259 260 260 260 259 258 256 254 252 251 249 247 247 247 250 253 256 258 259 260 260 259 259 259 259 258 257 255 254 253 252 251 249 247 245 243 241 240 239 239 240 242 244 247 250 253 256 258 261 263 265 269 271 274 276 276 277 279 281 283 286
239 240 243 248 252 255 257 259 259 260 260 260 258 257 255 253 251 249 248 247 247 249 251 254 256 258 259 259 259 259 259 259 259 259 258 257 256 254 253 252 251 248 246 244 242 241 241 241 241 243 244 247 249 252 254 257 259 261 264 267 270 273 275 276 276 278 280 282 285
241 241 243 247 250 254 257 259 261 261 260 259 258 257 255 253 251 249 248 248 248 250 252 254 256 258 259 259 259 259 260 260 260 260 260 259 258 256 255 254 252 250 248 246 244 243 243 243 243 244 245 246 248 251 253 255 258 260 263 267 270 273 274 274 275 277 279 282 285
243 243 245 247 250 253 257 260 261 261 260 260 259 258 257 255 253 250 249 248 249 250 252 255 257 259 259 260 260 260 261 261 262 262 262 261 260 259 257 255 254 252 250 248 246 245 244 244 244 245 246 247 249 251 253 255 258 260 263 267 270 272 273 273 274 276 279 282 284
245 246 247 248 251 254 258 261 262 263 263 263 261 260 258 256 253 251 250 250 250 251 254 256 258 260 261 261 261 262 262 263 263 264 263 263 262 261 259 257 255 254 252 250 248 247 246 245 246 247 248 249 250 252 254 255 257 260 263 267 270 271 272 273 274 276 279 281 284
247 248 248 249 252 255 258 260 262 264 266 266 264 261 258 255 254 252 252 252 252 253 254 257 259 261 262 264 264 265 265 265 265 265 264 264 263 262 260 259 257 255 254 252 250 248 247 247 247 248 249 250 251 253 254 255 257 259 263 266 269 271 272 272 273 276 278 281 283
249 250 250 251 252 254 256 257 260 264 267 268 266 262 258 256 254 253 253 253 253 254 255 258 260 262 264 266 267 267 267 267 266 266 265 265 264 263 262 260 259 257 255 253 251 249 248 248 248 249 250 251 252 253 254 255 256 259 262 265 268 270 271 272 273 275 278 280 282
250 251 252 252 252 253 253 255 259 264 268 270 269 265 260 257 255 254 253 253 254 255 257 258 261 263 265 267 269 269 269 269 268 267 266 265 264 263 262 261 259 257 255 253 251 250 249 249 249 249 250 251 252 253 254 255 256 259 262 265 267 269 270 271 273 275 277 280 282
251 252 252 252 251 251 252 254 259 265 269 272 271 268 263 259 256 254 254 254 255 256 257 259 261 263 265 267 269 270 271 271 270 269 267 266 265 263 262 261 259 258 255 253 251 250 249 248 249 249 249 251 252 253 254 255 257 259 261 264 267 268 269 271 273 275 277 279 282
252 252 252 251 250 251 252 255 259 265 270 272 272 269 265 260 257 255 254 254 256 257 258 259 260 262 265 267 269 270 271 271 271 270 268 267 265 263 262 260 259 257 256 254 251 250 249 248 247 247 248 249 251 252 253 255 257 259 262 264 266 267 269 270 272 275 277 280 282
252 252 251 250 250 250 252 255 260 265 269 272 272 270 266 261 257 255 255 255 256 256 257 259 260 262 264 266 269 270 271 271 271 270 269 267 265 264 262 261 259 258 256 254 252 250 249 248 247 247 247 248 250 252 253 254 257 259 262 264 266 267 268 270 272 275 277 280 282
252 251 250 249 249 250 252 255 260 265 269 271 272 270 266 262 258 256 255 255 255 256 257 258 260 262 264 266 268 269 270 271 271 270 269 267 266 265 263 262 260 259 257 255 253 251 249 248 247 246 246 247 249 251 252 254 256 259 261 264 265 266 268 270 273 275 278 280 281
250 250 250 249 249 250 252 256 260 265 268 271 272 270 267 262 258 256 255 255 255 256 257 259 260 262 263 265 266 268 269 270 270 270 270 269 267 266 264 263 262 260 258 255 253 251 249 247 246 245 245 246 248 250 252 254 256 259 261 263 264 266 268 270 273 275 278 280 281
249 249 249 249 249 251 253 256 260 264 267 270 271 269 266 262 258 256 255 255 255 256 258 259 260 261 262 264 265 266 268 269 270 270 271 270 269 267 265 263 261 260 257 255 253 250 248 246 245 244 244 245 247 249 251 253 256 258 260 262 264 266 268 271 273 275 277 279 281
249 249 249 249 250 251 253 256 259 263 266 269 270 268 265 261 258 256 255 255 255 256 258 259 259 260 262 263 264 265 267 268 270 271 271 270 269 266 264 262 260 258 256 254 252 250 247 246 244 244 244 245 246 248 250 253 255 258 260 262 264 266 269 271 273 275 277 279 281
248 248 248 249 249 250 253 255 258 262 265 267 268 266 263 260 258 257 256 256 257 257 258 258 259 260 261 262 263 265 267 268 270 271 271 269 267 265 262 260 258 256 254 252 250 248 246 245 244 243 244 245 246 248 251 253 256 258 261 263 265 267 269 271 273 275 277 280 282
248 248 248 248 248 250 252 254 258 261 263 265 265 264 261 260 258 258 258 258 258 258 258 259 260 260 261 263 264 266 267 269 269 269 269 267 265 263 260 258 256 254 252 251 249 247 246 245 244 244 244 245 247 249 252 255 257 259 261 263 265 267 268 270 273 275 278 280 282
247 247 247 247 248 249 251 253 256 259 261 263 263 262 261 260 259 259 259 259 260 260 260 261 261 262 263 265 265 266 267 267 267 267 266 264 262 260 258 256 254 252 251 249 248 247 246 245 245 245 245 246 248 251 253 256 258 260 261 263 264 266 268 271 273 276 278 280 282
247 247 247 247 248 249 250 253 255 258 259 261 261 261 260 260 260 260 260 260 261 262 263 263 264 265 265 265 266 265 265 265 265 264 264 262 260 258 256 254 252 251 249 248 248 247 246 246 246 246 247 248 250 253 255 257 259 260 261 263 264 266 268 271 274 276 279 281 283
246 247 247 248 249 249 251 252 254 256 258 259 259 260 260 259 260 260 261 261 262 263 264 265 265 265 265 265 264 263 263 263 263 262 262 261 259 257 255 253 251 250 249 249 248 248 248 247 247 248 249 251 253 255 256 258 259 260 261 263 264 267 269 272 275 277 280 282 284
246 247 248 249 249 250 251 252 253 255 256 257 258 258 258 258 259 260 261 262 263 264 264 264 264 264 263 263 262 262 261 261 261 261 260 259 258 256 254 252 251 249 249 249 248 248 248 248 249 250 251 253 254 256 257 258 259 260 261 263 265 268 270 273 276 278 281 283 284
246 247 247 248 249 249 250 251 252 253 254 255 255 255 256 257 258 259 261 262 263 263 263 263 262 262 261 261 261 261 261 261 261 260 259 257 256 254 253 251 250 249 248 248 248 248 248 248 249 251 252 254 255 256 257 258 259 260 262 264 266 269 272 275 277 280 282 283 284
244 245 246 246 247 248 249 250 250 251 252 253 253 254 256 257 258 259 260 261 261 261 261 261 261 260 260 260 261 261 261 261 260 259 257 256 254 253 251 250 249 248 248 248 248 248 249 250 251 252 253 254 255 256 257 258 259 261 262 264 267 270 273 276 279 281 282 283 284
242 242 243 244 245 246 247 248 248 249 250 252 253 254 255 256 257 258 259 260 260 260 260 260 260 260 261 261 261 261 261 260 259 257 256 254 253 251 250 248 248 247 248 248 248 249 250 251 252 253 254 255 256 256 257 258 259 261 263 265 268 271 274 277 280 282 283 283 284
239 240 241 242 243 244 245 246 248 249 250 251 252 253 254 255 256 257 258 258 259 259 260 260 260 260 260 260 261 260 259 258 257 255 254 253 252 250 249 248 246 246 246 247 247 248 250 251 252 253 255 256 257 258 258 259 260 262 264 267 270 273 277 280 282 282 283 284 286
236 237 238 240 241 243 245 246 247 248 249 250 251 252 253 254 255 256 257 257 258 258 259 258 259 259 259 260 259 258 257 256 255 254 253 252 251 250 249 247 246 245 245 246 247 248 249 251 252 253 255 256 258 259 260 261 262 264 267 270 273 276 279 281 282 282 283 285 287
234 235 236 238 240 242 243 244 245 246 247 248 249 250 251 252 254 254 255 256 257 257 257 258 258 259 259 259 259 258 257 256 254 253 253 252 251 250 249 247 245 244 245 245 247 248 250 251 252 253 254 256 258 260 261 263 265 267 269 272 276 278 280 281 281 282 284 286 289
232 233 234 235 237 238 240 241 242 243 244 245 247 248 249 250 252 253 254 255 256 256 257 258 259 260 260 260 259 259 258 257 256 254 253 253 251 250 248 246 245 244 245 246 247 249 250 251 253 254 255 256 258 260 262 264 266 269 272 275 277 279 280 280 281 283 285 288 291
230 230 230 231 232 234 235 237 238 239 241 242 244 246 247 249 251 253 254 256 257 258 259 260 261 261 261 261 261 261 260 259 257 256 254 252 250 248 246 244 244 244 245 246 248 249 251 252 253 255 256 257 259 261 263 265 268 271 274 276 278 278 279 280 281 284 287 290 293
226 225 225 226 227 229 230 232 234 236 237 240 242 245 247 250 253 255 257 259 261 263 264 265 266 267 267 268 267 266 265 263 261 257 253 250 248 246 245 243 243 244 245 246 248 249 251 253 254 256 257 259 260 262 265 267 270 273 275 277 277 278 279 281 283 286 288 291 294
221 221 221 222 223 224 226 228 230 233 236 240 243 247 251 254 257 259 261 263 265 267 269 271 273 274 274 275 274 272 268 265 261 257 252 248 245 244 243 242 243 244 245 247 248 250 252 254 256 257 259 260 262 264 267 269 272 274 276 276 277 277 279 282 285 287 290 292 295
217 217 217 217 218 219 221 224 229 234 238 243 247 250 254 256 259 261 263 265 268 270 272 274 275 276 276 275 274 271 267 262 258 253 249 245 243 242 242 241 243 245 246 248 250 252 254 256 258 259 261 262 264 266 269 271 273 275 275 276 276 277 280 283 286 288 291 293 295
212 211 210 211 212 214 219 224 229 235 240 244 247 251 253 256 258 261 263 266 269 271 273 274 275 274 273 271 268 266 263 259 254 249 245 243 241 241 241 241 243 245 248 250 252 254 256 258 260 261 263 264 266 269 271 273 274 274 275 275 277 279 281 284 287 289 291 294 295
204 203 204 206 209 214 219 225 230 234 238 242 246 249 252 254 257 260 264 267 268 269 270 271 271 270 268 266 264 261 258 253 249 245 242 241 239 239 241 242 244 247 249 252 254 256 258 260 262 263 265 267 269 270 272 273 274 274 275 276 278 280 283 286 288 290 292 294 296
197 198 201 205 210 216 222 227 231 235 239 242 246 248 251 254 256 260 263 266 267 266 266 266 265 264 263 261 259 256 253 249 244 241 239 239 239 240 242 244 247 249 252 254 256 258 260 262 263 265 267 269 270 272 273 273 274 275 276 278 280 283 285 287 290 292 294 296 297
194 197 202 207 213 220 226 231 235 239 242 245 248 250 253 255 257 260 263 265 265 264 263 261 260 259 258 256 253 251 249 246 242 238 237 238 240 242 244 246 250 252 254 256 259 261 262 264 266 267 269 270 271 272 273 274 275 276 278 280 283 285 287 289 292 294 296 297 298
195 199 205 211 218 225 230 235 239 243 247 249 251 254 256 258 260 261 262 262 262 261 260 258 257 255 254 252 250 248 246 244 241 239 239 240 243 246 248 250 253 256 258 259 261 263 265 266 268 269 270 271 272 273 273 275 276 278 280 283 285 288 290 292 294 296 297 298 298
Height
1510 1510 1511 1511 1511 1512 1512 1513 1513 1514 1515 1515 1516 1516 1516 1516 1516 1517 1517 1517 1518 1518 1519 1519 1520 1520 1521 1521 1521 1522 1522 1523 1523 1523 1523 1523 1524 1524 1524 1524 1525 1525 1526 1526 1527 1527 1528 1528 1529 1529 1529 1530 1530 1531 1531 1531 1531 1532 1532 1532 1532 1532 1532 1531 1531 1531 1531 1531 1531
1508 1509 1509 1509 1510 1510 1511 1511 1511 1512 1513 1513 1514 1514 1515 1515 1515 1515 1516 1516 1516 1517 1517 1518 1518 1519 1519 1519 1520 1520 1521 1521 1521 1521 1521 1521 1522 1522 1522 1523 1523 1523 1524 1525 1525 1526 1526 1526 1527 1527 1527 1528 1528 1529 1529 1529 1530 1530 1530 1530 1530 1530 1530 1530 1530 1530 1530 1529 1529
1506 1507 1507 1507 1508 1508 1509 1509 1510 1510 1511 1511 1512 1512 1513 1513 1513 1513 1514 1514 1515 1515 1516 1516 1517 1517 1517 1518 1518 1518 1519 1519 1519 1520 1520 1520 1520 1520 1521 1521 1521 1522 1522 1523 1523 1524 1524 1525 1525 1525 1526 1526 1526 1527 1527 1528 1528 1528 1528 1528 1529 1529 1528 1528 1528 1528 1528 1528 1527
1504 1505 1505 1506 1506 1506 1507 1507 1508 1509 1509 1510 1510 1511 1511 1511 1511 1511 1512 1513 1513 1514 1514 1515 1515 1516 1516 1516 1516 1516 1517 1517 1517 1518 1518 1518 1518 1519 1519 1519 1520 1520 1521 1521 1521 1522 1522 1523 1523 1523 1523 1524 1524 1525 1526 1526 1526 1526 1527 1527 1527 1527 1527 1527 1527 1526 1526 1526 1525
1502 1503 1503 1504 1504 1505 1505 1506 1506 1507 1507 1508 1508 1508 1509 1509 1509 1510 1511 1511 1511 1512 1513 1513 1514 1514 1514 1514 1515 1515 1515 1515 1516 1516 1516 1516 1517 1517 1517 1517 1518 1518 1519 1519 1520 1520 1521 1521 1521 1521 1521 1522 1522 1523 1524 1524 1525 1525 1525 1525 1525 1525 1525 1525 1525 1525 1524 1524 1523
1500 1501 1501 1502 1502 1503 1503 1504 1504 1505 1505 1506 1506 1506 1506 1507 1507 1508 1509 1509 1510 1511 1511 1512 1512 1512 1512 1512 1513 1513 1513 1513 1514 1514 1514 1515 1515 1515 1515 1516 1516 1516 1517 1517 1518 1518 1519 1519 1519 1519 1520 1520 1521 1521 1522 1522 1523 1523 1523 1523 1523 1523 1523 1523 1523 1523 1522 1522 1521
1498 1499 1500 1500 1501 1501 1501 1502 1502 1503 1503 1503 1503 1504 1504 1505 1506 1506 1507 1508 1509 1509 1510 1510 1510 1511 1511 1511 1511 1511 1511 1511 1512 1512 1512 1513 1513 1513 1513 1514 1514 1515 1515 1516 1516 1516 1517 1517 1517 1517 1518 1518 1519 1519 1520 1521 1521 1521 1521 1521 1521 1521 1521 1521 1521 1521 1520 1520 1520
1496 1497 1497 1498 1498 1499 1500 1500 1501 1501 1501 1501 1501 1502 1502 1503 1504 1505 1506 1506 1506 1507 1508 1508 1508 1509 1509 1509 1509 1509 1510 1510 1510 1510 1511 1511 1511 1511 1512 1512 1512 1512 1513 1513 1514 1514 1515 1515 1515 1515 1516 1516 1516 1517 1518 1519 1519 1519 1519 1519 1519 1520 1520 1519 1519 1519 1518 1518 1517
1494 1495 1495 1496 1496 1497 1497 1498 1498 1499 1499 1499 1499 1500 1501 1501 1502 1503 1503 1504 1505 1505 1506 1506 1506 1507 1507 1507 1507 1507 1508 1508 1508 1508 1509 1509 1509 1510 1510 1510 1510 1511 1511 1511 1512 1512 1513 1513 1513 1513 1513 1514 1515 1515 1516 1517 1517 1517 1517 1517 1517 1517 1517 1517 1517 1516 1516 1516 1516
1492 1492 1493 1494 1494 1495 1496 1496 1496 1496 1497 1497 1497 1498 1499 1499 1500 1500 1501 1502 1503 1503 1504 1504 1505 1505 1505 1505 1506 1506 1506 1506 1506 1507 1507 1507 1507 1508 1508 1508 1508 1509 1509 1509 1510 1510 1511 1511 1511 1511 1511 1512 1512 1513 1514 1515 1515 1515 1515 1515 1515 1515 1515 1515 1515 1515 1514 1514 1513
1490 1491 1491 1491 1492 1493 1493 1494 1494 1494 1495 1495 1495 1496 1496 1497 1497 1498 1499 1500 1501 1501 1501 1502 1503 1503 1503 1503 1504 1504 1504 1505 1505 1505 1505 1505 1506 1506 1506 1506 1506 1506 1507 1507 1507 1508 1508 1508 1509 1509 1509 1510 1511 1511 1512 1512 1513 1513 1513 1513 1513 1513 1513 1513 1513 1512 1512 1512 1511
1488 1488 1489 1490 1490 1491 1491 1491 1491 1492 1492 1493 1493 1494 1494 1495 1496 1496 1497 1498 1498 1499 1499 1500 1501 1501 1501 1501 1502 1502 1502 1503 1503 1503 1503 1504 1504 1504 1504 1504 1504 1505 1505 1505 1505 1506 1506 1506 1506 1507 1507 1508 1508 1509 1509 1510 1511 1511 1511 1511 1511 1511 1511 1511 1511 1510 1510 1510 1509
1486 1486 1487 1487 1488 1488 1488 1489 1489 1490 1490 1491 1491 1492 1492 1493 1494 1494 1495 1495 1496 1496 1497 1498 1499 1499 1499 1500 1500 1500 1501 1501 1501 1501 1501 1501 1502 1502 1502 1502 1502 1502 1502 1503 1503 1503 1503 1504 1504 1505 1505 1506 1506 1506 1507 1508 1508 1508 1509 1509 1509 1509 1509 1509 1508 1508 1508 1508 1507
1483 1484 1484 1485 1485 1486 1486 1486 1486 1487 1488 1488 1489 1490 1490 1491 1491 1492 1493 1493 1494 1495 1495 1496 1496 1497 1497 1498 1498 1498 1499 1499 1499 1499 1499 1499 1500 1500 1500 1500 1500 1500 1500 1501 1501 1501 1501 1501 1502 1502 1503 1503 1504 1504 1505 1506 1506 1506 1506 1506 1506 1506 1506 1506 1506 1506 1506 1506 1506
1481 1481 1481 1482 1483 1483 1483 1484 1484 1485 1485 1486 1487 1488 1488 1489 1489 1490 1491 1491 1492 1493 1493 1494 1494 1495 1496 1496 1496 1496 1496 1497 1497 1497 1497 1497 1497 1497 1497 1497 1498 1498 1498 1498 1499 1499 1499 1499 1500 1500 1501 1501 1502 1502 1503 1503 1504 1504 1504 1504 1504 1504 1504 1504 1504 1504 1504 1504 1504
1478 1478 1479 1480 1480 1480 1481 1481 1482 1482 1483 1484 1485 1486 1486 1486 1487 1488 1488 1489 1490 1491 1491 1491 1492 1493 1493 1494 1494 1494 1494 1495 1495 1495 1495 1495 1495 1495 1495 1496 1496 1496 1496 1496 1496 1496 1497 1497 1497 1498 1499 1499 1500 1500 1501 1501 1501 1501 1501 1501 1501 1502 1502 1502 1502 1502 1502 1502 1502
1475 1476 1476 1477 1477 1478 1478 1479 1480 1480 1481 1482 1483 1483 1484 1484 1485 1486 1486 1487 1488 1488 1489 1489 1490 1491 1491 1491 1492 1492 1492 1492 1492 1492 1492 1493 1493 1493 1493 1493 1493 1494 1494 1494 1494 1494 1495 1495 1496 1496 1496 1497 1498 1498 1499 1499 1499 1499 1499 1499 1499 1499 1500 1500 1500 1500 1500 1500 1500
1472 1473 1474 1474 1475 1476 1476 1477 1477 1478 1479 1480 1480 1481 1481 1482 1483 1483 1484 1485 1485 1486 1486 1487 1488 1488 1489 1489 1489 1490 1490 1490 1490 1490 1490 1491 1491 1491 1491 1491 1491 1491 1491 1491 1492 1492 1492 1493 1493 1494 1494 1495 1496 1496 1496 1496 1496 1496 1496 1497 1497 1497 1497 1498 1498 1498 1498 1498 1498
1470 1471 1471 1472 1472 1473 1474 1475 1476 1476 1477 1477 1478 1479 1479 1480 1480 1481 1481 1482 1483 1484 1484 1485 1485 1486 1486 1486 1486 1487 1487 1487 1487 1488 1488 1488 1488 1488 1489 1489 1489 1489 1489 1489 1489 1490 1490 1491 1491 1492 1492 1493 1493 1493 1494 1494 1494 1494 1494 1495 1495 1495 1496 1496 1496 1496 1496 1496 1496
1467 1468 1469 1470 1471 1471 1472 1473 1473 1474 1475 1475 1476 1476 1477 1477 1478 1478 1479 1480 1481 1481 1482 1482 1483 1483 1483 1484 1484 1484 1485 1485 1485 1486 1486 1486 1486 1486 1486 1486 1486 1486 1487 1487 1487 1487 1488 1488 1489 1489 1490 1491 1491 1491 1491 1491 1492 1492 1492 1492 1493 1493 1493 1494 1494 1494 1494 1494 1493
1465 1466 1466 1467 1468 1469 1470 1471 1471 1472 1472 1473 1473 1474 1474 1475 1476 1476 1477 1478 1478 1479 1479 1480 1480 1481 1481 1481 1481 1482 1482 1483 1483 1483 1483 1483 1483 1483 1484 1484 1484 1484 1484 1485 1485 1485 1486 1486 1487 1487 1488 1488 1488 1489 1489 1489 1490 1490 1490 1490 1491 1491 1491 1491 1492 1492 1491 1491 1491
1462 1463 1465 1465 1466 1467 1468 1468 1469 1470 1470 1471 1471 1471 1472 1473 1473 1474 1475 1475 1476 1476 1476 1477 1478 1478 1479 1479 1480 1480 1480 1480 1480 1480 1481 1481 1481 1481 1481 1481 1482 1482 1482 1482 1483 1483 1484 1484 1485 1485 1486 1486 1486 1487 1487 1487 1487 1488 1488 1488 1489 1489 1489 1489 1490 1490 1490 1489 1489
1461 1461 1462 1463 1464 1465 1466 1466 1466 1467 1468 1468 1469 1469 1470 1471 1471 1472 1472 1473 1473 1474 1474 1475 1476 1476 1476 1477 1477 1477 1478 1478 1478 1478 1478 1478 1478 1479 1479 1479 1479 1480 1480 1480 1481 1481 1482 1482 1483 1483 1484 1484 1484 1485 1485 1485 1486 1486 1486 1486 1486 1486 1487 1487 1487 1487 1487 1487 1487
1458 1459 1460 1461 1461 1462 1463 1464 1464 1465 1466 1466 1467 1467 1468 1468 1469 1470 1470 1471 1471 1471 1472 1473 1473 1474 1474 1475 1475 1475 1475 1475 1475 1475 1476 1476 1476 1476 1477 1477 1477 1478 1478 1479 1479 1480 1480 1480 1481 1481 1482 1482 1482 1483 1483 1483 1483 1483 1484 1484 1484 1484 1485 1485 1485 1485 1485 1485 1485
1456 1457 1457 1458 1459 1460 1461 1461 1462 1463 1463 1464 1465 1465 1466 1466 1467 1467 1468 1468 1469 1470 1470 1471 1471 1471 1472 1472 1472 1472 1472 1473 1473 1473 1474 1474 1474 1475 1475 1475 1476 1476 1476 1477 1477 1478 1478 1479 1479 1480 1480 1480 1481 1481 1481 1481 1481 1481 1481 1482 1482 1482 1482 1483 1483 1483 1483 1483 1483
1453 1454 1455 1456 1457 1458 1458 1459 1460 1461 1461 1462 1462 1463 1463 1464 1465 1465 1466 1466 1467 1467 1468 1468 1468 1469 1469 1470 1470 1470 1470 1471 1471 1471 1471 1472 1472 1472 1473 1473 1474 1474 1475 1475 1476 1476 1476 1477 1477 1478 1478 1478 1478 1478 1478 1479 1479 1479 1479 1479 1480 1480 1480 1480 1481 1481 1481 1481 1480
1451 1452 1453 1454 1455 1455 1456 1457 1458 1458 1459 1460 1460 1461 1461 1462 1462 1463 1463 1464 1465 1465 1465 1466 1466 1466 1467 1467 1467 1468 1468 1469 1469 1469 1470 1470 1470 1471 1471 1471 1472 1472 1473 1473 1474 1474 1475 1475 1476 1476 1476 1476 1476 1476 1476 1476 1476 1476 1477 1477 1477 1477 1478 1478 1478 1478 1478 1478 1478
1448 1449 1451 1451 1452 1453 1454 1455 1455 1456 1456 1457 1458 1459 1459 1460 1460 1461 1461 1462 1462 1462 1463 1463 1464 1464 1465 1465 1465 1466 1466 1466 1467 1467 1467 1468 1468 1469 1469 1470 1470 1471 1471 1472 1472 1472 1473 1473 1473 1473 1473 1473 1473 1474 1474 1474 1474 1474 1475 1475 1475 1475 1475 1476 1476 1476 1476 1475 1475
1446 1447 1448 1449 1450 1451 1451 1452 1453 1454 1454 1455 1456 1456 1456 1457 1458 1458 1459 1459 1460 1460 1461 1461 1462 1462 1462 1463 1463 1464 1464 1464 1465 1465 1465 1466 1466 1466 1467 1467 1468 1469 1469 1470 1470 1470 1471 1471 1471 1471 1471 1471 1471 1471 1471 1471 1471 1472 1472 1472 1472 1473 1473 1473 1473 1473 1472 1472 1472
1444 1445 1445 1446 1447 1448 1449 1450 1451 1451 1452 1452 1453 1454 1454 1455 1456 1456 1456 1457 1458 1458 1459 1459 1459 1460 1460 1461 1461 1461 1462 1462 1462 1463 1463 1463 1464 1464 1465 1466 1466 1467 1467 1467 1468 1468 1468 1469 1469 1469 1469 1469 1468 1468 1468 1469 1469 1469 1469 1470 1470 1470 1470 1470 1470 1470 1470 1469 1469
1441 1442 1443 1444 1445 1446 1447 1447 1448 1449 1450 1450 1451 1451 1452 1452 1453 1454 1454 1455 1455 1456 1456 1456 1457 1457 1458 1458 1459 1459 1459 1460 1460 1460 1461 1461 1462 1462 1463 1464 1464 1465 1465 1466 1466 1466 1466 1466 1466 1466 1467 1466 1466 1466 1466 1466 1466 1466 1467 1467 1467 1468 1468 1467 1467 1467 1467 1466 1466
1439 1440 1440 1441 1442 1443 1444 1445 1446 1446 1447 1448 1448 1449 1450 1451 1451 1451 1452 1452 1453 1453 1454 1454 1455 1455 1456 1456 1456 1456 1457 1457 1458 1458 1459 1459 1460 1461 1461 1462 1462 1462 1463 1463 1464 1464 1464 1464 1464 1464 1465 1465 1464 1464 1464 1464 1464 1464 1465 1465 1465 1465 1465 1465 1465 1465 1464 1464 1464
1436 1437 1438 1439 1440 1441 1442 1443 1443 1444 1445 1446 1446 1447 1448 1448 1449 1450 1450 1451 1451 1451 1452 1452 1453 1453 1453 1454 1454 1454 1455 1455 1456 1456 1457 1457 1458 1458 1459 1460 1460 1460 1461 1461 1461 1461 1461 1462 1462 1462 1462 1463 1462 1462 1462 1462 1462 1462 1462 1463 1463 1463 1463 1462 1462 1462 1462 1461 1461
1434 1435 1436 1436 1437 1438 1439 1441 1441 1442 1443 1444 1445 1446 1446 1447 1447 1448 1448 1449 1449 1450 1450 1451 1451 1451 1451 1452 1452 1452 1453 1453 1454 1454 1455 1455 1456 1456 1457 1457 1458 1458 1458 1459 1459 1459 1459 1460 1460 1460 1461 1461 1460 1460 1460 1460 1460 1460 1460 1461 1460 1460 1460 1460 1460 1460 1459 1459 1458
1432 1433 1434 1435 1436 1436 1437 1439 1440 1441 1441 1442 1443 1444 1445 1445 1446 1446 1446 1447 1448 1448 1448 1449 1449 1450 1450 1450 1451 1451 1451 1451 1452 1452 1452 1453 1453 1454 1454 1455 1455 1456 1456 1456 1456 1457 1457 1457 1458 1458 1458 1458 1458 1458 1458 1458 1458 1458 1458 1458 1458 1458 1458 1458 1457 1457 1457 1456 1456
1431 1431 1432 1433 1434 1435 1436 1437 1438 1439 1440 1441 1442 1442 1443 1443 1444 1444 1445 1445 1446 1446 1447 1447 1448 1448 1448 1448 1449 1449 1449 1449 1450 1450 1450 1451 1451 1451 1452 1453 1453 1453 1454 1454 1455 1455 1456 1456 1456 1456 1456 1456 1456 1456 1456 1456 1456 1456 1456 1456 1456 1456 1456 1455 1455 1455 1454 1454 1453
1429 1430 1431 1431 1432 1433 1434 1436 1436 1438 1438 1439 1440 1441 1441 1442 1442 1443 1443 1444 1444 1445 1445 1446 1446 1446 1446 1446 1446 1447 1447 1447 1447 1447 1448 1448 1449 1449 1450 1450 1451 1451 1452 1452 1453 1453 1454 1454 1454 1454 1454 1454 1454 1454 1454 1454 1454 1454 1453 1453 1453 1453 1453 1453 1452 1452 1451 1451 1450
1428 1428 1429 1430 1431 1432 1433 1434 1435 1436 1436 1437 1438 1439 1439 1440 1441 1441 1441 1442 1443 1443 1444 1444 1444 1444 1444 1444 1444 1445 1445 1445 1445 1445 1445 1446 1446 1447 1447 1448 1449 1449 1450 1451 1451 1451 1452 1452 1452 1452 1452 1452 1452 1452 1452 1452 1451 1451 1451 1451 1451 1451 1451 1450 1450 1449 1448 1448 1447
1426 1427 1428 1428 1429 1430 1431 1432 1433 1434 1435 1436 1436 1437 1438 1438 1439 1439 1440 1440 1441 1441 1441 1442 1442 1442 1442 1442 1442 1442 1442 1442 1442 1443 1443 1443 1444 1445 1446 1446 1447 1447 1448 1449 1449 1450 1450 1451 1451 1451 1451 1450 1450 1450 1450 1450 1449 1449 1448 1448 1448 1448 1447 1447 1447 1446 1445 1445 1444
1425 1425 1426 1427 1428 1429 1430 1431 1431 1432 1433 1434 1435 1435 1436 1436 1437 1437 1437 1438 1439 1439 1439 1439 1440 1440 1440 1440 1440 1440 1440 1440 1441 1441 1441 1441 1442 1443 1444 1445 1446 1446 1446 1447 1448 1448 1448 1449 1449 1449 1449 1448 1448 1448 1447 1447 1447 1446 1446 1446 1446 1445 1445 1444 1443 1443 1442 1441 1441
1423 1424 1425 1426 1426 1427 1428 1429 1430 1431 1431 1432 1433 1434 1434 1435 1435 1435 1436 1436 1436 1437 1437 1437 1437 1437 1438 1438 1438 1438 1438 1438 1439 1439 1440 1440 1441 1441 1442 1443 1444 1445 1445 1446 1446 1446 1447 1447 1447 1447 1447 1446 1446 1446 1445 1445 1444 1444 1444 1443 1443 1442 1441 1441 1440 1440 1439 1438 1437